Temp
22 22 22 22 22 22 23 23 23 23 23 23 23 23 23 23 24 24 25 24 24 24 24 24 24 24 24 24 24 24 24 24 25 25 23 22 22 22 22 22 23 23 23 24 24 24 24 24 23 22 23 23 21 20 21 20 19 22 23 23 22 21 22 22 22 21 22 23 22 21 20 21 20 17 15 15 14 14 14 13 12 12 11 12 12 13 12 12
21 22 22 22 22 22 23 23 23 23 23 23 23 23 23 23 23 24 24 24 25 24 24 24 24 24 24 24 24 24 24 24 25 24 22 22 22 23 22 23 23 23 23 23 23 22 23 23 20 20 23 23 21 21 22 20 20 22 22 23 22 22 22 22 22 21 22 23 23 21 20 21 21 17 16 17 15 13 15 13 12 12 12 11 12 12 12 12
21 22 22 22 22 22 23 23 23 23 23 23 23 24 23 23 23 24 24 24 25 25 24 24 24 24 24 24 23 24 24 24 25 24 23 23 23 23 22 23 23 23 23 23 23 21 22 22 19 21 24 24 21 21 23 22 21 21 22 24 23 22 22 21 21 22 22 23 23 21 19 20 19 17 17 18 15 14 15 13 12 12 11 12 11 10 11 11
21 22 22 22 22 22 23 23 23 23 23 23 23 24 24 24 23 24 24 24 24 24 25 24 24 24 24 24 23 24 24 25 25 24 23 23 23 23 23 23 23 23 24 23 23 22 22 20 19 21 24 24 22 21 23 22 21 21 22 24 23 21 22 22 21 21 21 21 23 21 19 20 18 16 17 17 16 15 14 13 14 13 11 11 10 9 10 10
21 21 21 22 22 22 22 23 23 23 23 23 23 24 24 24 24 24 24 24 24 24 24 24 24 24 24 24 23 24 24 25 25 23 23 24 24 24 23 23 24 24 24 24 23 22 22 20 19 22 23 24 23 22 23 21 21 22 22 22 22 20 22 22 21 20 20 20 22 21 20 20 17 17 16 17 20 19 16 14 14 13 11 11 10 9 9 9
21 21 21 22 22 22 22 23 23 23 23 23 24 24 24 24 24 24 24 24 24 24 24 24 24 24 24 24 23 23 24 25 24 23 24 24 24 24 23 24 24 24 24 25 24 22 22 21 22 23 22 22 22 22 22 20 20 23 22 20 20 20 21 22 21 20 20 20 22 21 20 18 17 18 16 16 20 18 15 14 13 12 11 10 9 9 9 9
21 21 21 21 21 22 22 22 23 23 23 24 24 24 24 24 24 24 24 24 24 24 24 24 24 24 24 23 23 23 23 24 23 23 24 24 24 24 24 24 24 24 24 25 24 22 22 22 23 21 21 23 21 21 21 20 21 23 22 21 20 20 21 22 21 20 20 21 21 19 19 18 19 19 15 16 17 14 12 12 11 10 9 9 9 9 9 9
21 21 21 21 21 22 22 22 22 23 23 23 24 24 24 24 24 24 24 24 24 24 24 24 24 23 23 23 23 23 23 24 23 23 23 24 24 24 24 24 24 25 24 23 22 22 22 22 21 19 22 22 20 21 21 21 22 22 22 21 20 20 21 20 20 20 20 21 19 19 20 19 18 17 16 16 15 12 11 11 10 9 9 9 10 10 8 7
20 21 21 21 21 21 22 22 22 23 23 23 24 24 24 24 24 24 24 24 24 24 24 24 24 23 23 23 22 24 24 23 23 23 23 24 24 24 24 24 24 24 23 22 21 22 22 21 20 20 22 21 19 21 20 22 22 21 21 21 21 21 20 20 20 20 20 20 18 20 21 18 16 16 17 16 13 11 10 11 10 10 10 10 10 9 7 6
20 20 21 21 21 21 21 22 22 22 22 23 23 23 24 24 24 24 24 24 24 24 24 24 24 23 23 23 22 24 24 22 22 23 23 23 23 23 23 23 23 24 22 21 21 21 21 21 19 18 20 20 20 20 19 21 21 19 20 20 21 20 19 19 20 20 19 19 19 20 21 17 15 16 19 15 11 11 10 10 10 10 11 10 10 9 7 7
20 20 21 21 21 21 21 21 21 22 22 23 23 23 24 24 24 24 24 24 24 24 24 24 23 23 23 22 23 24 23 22 23 22 23 23 23 23 23 23 23 23 22 20 19 20 20 20 17 17 20 20 20 20 20 20 20 19 20 21 21 20 20 19 19 19 19 20 19 20 20 17 15 17 19 15 11 11 10 10 10 10 10 9 10 9 7 7
20 20 20 20 20 21 21 21 21 22 22 22 23 23 23 24 24 24 23 23 24 24 24 23 23 23 22 21 22 23 22 22 22 22 23 23 23 22 22 22 22 22 22 20 19 19 20 19 18 20 21 20 20 21 20 19 19 19 19 21 21 21 22 19 18 19 19 20 19 19 20 18 17 18 17 14 11 11 10 10 10 9 10 9 10 9 8 8
19 20 20 20 20 20 20 21 21 21 22 22 23 23 23 24 24 24 23 23 24 24 23 23 23 22 22 23 22 22 22 22 22 22 22 22 22 22 21 21 21 21 21 20 19 19 19 19 19 20 19 20 21 20 20 19 19 20 19 20 21 21 22 19 18 18 19 20 19 20 21 20 19 18 16 12 11 10 10 10 9 9 9 9 9 9 9 8
19 19 20 20 20 20 20 21 21 21 22 22 22 23 23 24 24 23 23 23 23 24 23 23 23 22 22 23 22 21 21 22 22 22 21 22 22 21 21 20 21 20 20 20 19 19 19 19 19 19 18 19 20 19 20 19 19 20 19 19 19 20 22 20 18 19 20 19 18 20 20 20 21 19 15 11 11 11 11 10 9 9 9 8 8 8 9 8
19 19 19 19 20 20 20 20 21 21 21 22 22 23 23 24 23 23 23 23 23 24 23 22 22 22 22 22 21 20 21 21 21 21 21 21 21 21 20 20 20 20 20 19 19 19 18 18 19 20 19 18 19 20 21 20 19 19 20 20 18 18 21 21 18 18 21 19 17 19 20 19 21 19 14 11 11 11 11 10 9 9 8 8 8 8 9 9
18 18 19 19 19 20 20 20 21 21 21 22 22 23 23 24 23 23 23 23 23 23 23 22 22 22 23 22 20 20 20 21 21 21 21 21 20 20 20 20 19 19 19 19 19 18 18 19 18 18 19 19 19 21 21 21 20 18 19 21 20 19 19 20 19 18 19 19 18 19 20 20 20 18 13 11 11 11 11 10 9 9 8 8 8 8 9 9
17 18 18 18 19 19 20 20 20 20 21 22 22 23 24 23 23 23 23 22 23 23 22 22 21 22 22 21 20 20 19 20 21 20 21 20 20 20 19 19 18 18 18 18 18 18 18 19 18 17 19 19 18 20 21 20 21 19 18 19 19 19 18 19 20 18 17 19 19 19 19 19 20 18 13 11 11 11 11 11 10 9 9 8 8 8 8 9
16 17 17 18 18 19 19 19 20 20 20 21 22 23 23 24 23 22 22 22 22 22 22 22 22 22 23 21 20 20 19 20 20 20 20 20 20 20 19 19 17 17 19 19 19 19 19 19 19 20 20 19 19 21 21 20 20 20 19 19 18 18 18 18 19 19 18 19 19 18 18 18 19 18 14 11 11 11 11 11 10 9 9 8 8 8 8 8
15 16 17 17 17 18 18 19 19 19 20 21 22 23 23 24 23 22 22 22 22 23 23 22 22 23 23 21 19 19 19 19 20 20 20 19 20 19 19 18 17 19 21 21 21 20 19 20 20 21 21 21 21 21 21 20 20 20 18 18 18 18 18 18 18 18 17 19 18 18 18 18 18 19 17 13 11 11 11 11 11 9 9 8 8 8 8 8
13 15 16 17 17 17 18 18 19 19 19 20 21 22 23 23 23 23 22 23 22 21 22 22 21 22 22 20 18 18 19 19 19 19 19 19 19 19 19 18 19 21 21 22 22 18 17 21 21 21 22 22 21 20 20 19 18 18 18 17 17 17 17 18 18 17 16 17 18 17 17 18 18 18 17 14 11 11 11 11 11 10 9 8 8 8 7 8
12 13 14 15 16 16 17 18 18 19 19 19 20 21 21 20 21 22 21 22 19 14 17 19 17 19 19 18 18 19 19 19 19 18 19 19 19 20 20 19 21 22 20 18 19 17 17 21 22 21 21 20 20 19 18 18 18 18 18 17 17 16 16 18 17 15 15 16 17 17 16 17 17 17 17 15 12 11 11 11 11 10 9 9 8 8 8 8
11 12 13 14 15 16 17 18 18 19 19 19 20 19 18 17 18 17 17 21 18 12 13 15 14 17 17 16 17 18 19 19 19 18 18 18 18 20 20 20 21 22 19 17 19 19 19 22 22 20 17 17 18 17 17 17 17 17 16 17 17 16 16 17 16 14 14 15 17 17 15 15 16 16 17 15 13 13 12 12 12 11 10 9 9 8 8 8
10 10 11 13 14 15 16 17 17 18 18 19 20 18 16 16 16 15 15 19 19 15 14 16 17 17 17 17 17 17 18 19 20 20 18 18 19 19 20 20 20 20 19 19 21 21 21 22 20 17 16 18 18 17 17 17 16 17 16 17 17 16 16 18 16 14 15 15 15 15 14 14 15 15 16 16 14 14 13 12 12 12 11 10 9 9 8 8
9 9 10 12 13 15 16 16 17 17 17 18 19 18 17 17 16 15 16 18 19 17 15 16 16 17 18 17 17 18 18 18 20 19 17 18 19 18 20 20 19 20 20 20 20 20 22 20 16 15 17 18 18 17 17 18 18 17 16 16 17 17 17 17 15 14 15 15 14 14 15 15 15 15 16 16 14 13 13 12 12 11 11 10 9 9 8 8
9 8 9 11 12 14 15 16 17 16 16 17 18 18 17 17 16 15 17 19 20 19 16 15 16 17 18 17 17 18 18 18 18 17 16 18 19 19 19 18 19 21 20 18 19 20 20 16 13 16 17 16 18 17 17 18 18 17 17 17 17 17 17 15 14 14 15 16 14 14 16 16 15 15 16 15 14 14 12 12 12 11 10 9 9 9 8 8
9 8 8 9 11 13 15 16 15 15 16 16 17 17 17 16 16 15 17 19 20 20 19 18 18 18 18 17 17 17 19 20 17 15 15 16 17 19 20 18 18 20 19 17 18 19 18 13 13 17 17 16 17 17 16 16 17 17 16 15 15 16 15 14 14 15 16 16 14 13 14 15 15 17 17 17 16 16 14 12 11 11 10 9 9 9 8 7
9 8 8 9 9 11 13 14 14 14 17 16 16 17 16 16 15 15 18 19 20 21 20 18 18 19 18 16 16 18 21 20 16 15 16 16 16 18 20 19 18 18 17 17 19 18 16 15 15 16 16 16 17 17 16 15 17 17 14 13 15 15 14 14 14 14 14 13 12 13 13 13 13 15 17 17 16 16 15 13 12 10 10 9 9 8 8 7
8 8 8 8 9 10 11 12 12 13 15 15 15 16 16 15 15 16 19 20 20 22 21 18 17 17 17 15 16 18 19 18 19 18 14 15 17 17 19 19 19 20 17 17 21 18 16 17 17 16 16 16 17 18 16 15 17 17 12 12 14 14 13 13 13 13 12 11 13 13 13 13 13 14 14 14 15 16 15 15 14 11 10 9 9 8 7 7
8 8 8 8 9 9 10 11 12 12 14 14 15 15 15 14 15 18 19 19 21 22 20 19 17 17 17 16 16 17 17 17 19 17 14 16 17 17 18 17 18 19 16 16 20 18 15 15 15 16 17 17 17 15 13 15 17 14 11 12 13 12 12 12 12 13 12 12 14 13 12 14 15 16 15 13 15 17 16 15 15 13 11 9 8 8 7 7
8 8 8 8 9 9 10 11 12 12 13 14 15 14 14 15 17 19 18 19 22 21 19 18 18 17 17 17 17 17 17 17 17 16 16 17 16 16 15 14 16 18 16 15 17 16 14 12 12 15 16 15 15 11 9 12 13 12 12 14 14 13 11 11 11 12 13 14 15 14 13 14 15 16 16 16 18 19 18 17 15 13 11 9 8 7 7 7
9 9 9 9 9 9 11 11 12 12 13 14 14 13 15 17 17 18 18 19 21 20 18 18 17 17 17 18 18 17 17 18 16 17 17 16 17 17 16 16 17 17 16 16 16 14 13 13 14 14 12 12 14 13 10 10 10 12 14 15 16 15 13 12 12 12 14 16 16 13 12 13 14 15 16 17 18 18 17 18 18 15 12 9 8 7 7 6
9 9 9 9 8 9 10 11 11 11 12 13 13 13 16 18 16 17 19 20 21 20 20 19 16 16 17 17 18 17 17 18 16 17 17 16 17 17 17 18 19 18 18 18 17 16 15 15 14 13 11 12 15 15 12 11 12 13 14 15 16 16 15 15 14 14 15 15 14 11 11 12 13 15 16 16 17 17 15 16 16 15 12 9 7 7 7 6
9 9 9 9 8 9 9 10 10 11 12 13 13 15 17 16 16 17 19 21 21 19 18 18 16 16 17 17 18 17 16 17 16 16 16 15 16 17 17 16 17 20 19 16 16 18 18 15 12 13 14 13 15 16 15 14 13 13 14 16 16 15 15 15 15 15 15 15 13 11 12 13 14 16 16 16 17 17 15 13 13 13 12 10 8 7 6 5
9 9 9 9 9 9 9 9 10 10 11 12 15 16 15 15 16 17 18 20 19 17 17 16 15 16 17 18 18 16 17 18 16 16 16 15 15 17 17 15 14 17 18 16 16 17 18 18 15 15 15 13 14 15 16 15 13 12 13 15 16 16 16 16 16 16 16 15 13 11 12 14 16 17 16 15 15 14 12 11 9 10 11 9 8 7 6 5
9 9 10 9 9 9 9 9 9 10 11 13 15 16 14 15 16 17 18 19 18 17 16 15 15 17 17 16 16 15 17 19 16 15 16 15 16 16 18 17 15 16 18 17 17 15 15 17 15 12 11 12 13 13 13 15 14 11 11 13 15 15 16 16 15 14 13 13 13 12 13 14 15 16 14 13 13 12 11 9 8 9 9 8 7 6 5 5
9 9 9 9 9 9 9 9 9 9 11 14 15 14 14 16 17 17 18 19 19 18 17 16 16 17 17 17 16 15 16 17 15 15 16 15 15 15 17 18 15 15 18 18 18 16 16 17 13 10 11 10 11 11 12 15 16 12 12 14 13 12 15 16 14 12 11 12 13 13 14 14 15 15 13 12 12 12 11 9 9 9 8 7 7 6 5 5
9 9 9 9 9 10 9 9 10 9 11 13 14 14 15 16 17 18 18 18 18 18 18 18 18 18 18 18 18 17 16 16 15 16 16 15 16 15 15 17 15 15 18 18 18 18 18 18 13 11 14 11 7 10 11 11 13 13 14 14 12 11 13 14 13 12 11 12 13 13 14 14 15 15 13 11 12 14 13 10 8 8 7 7 6 5 5 4
9 9 9 9 10 10 10 10 9 9 11 13 13 14 15 16 16 18 18 17 17 17 18 19 18 18 18 18 18 16 16 17 15 15 16 16 17 16 16 17 15 14 16 17 18 17 16 18 14 9 11 11 8 11 13 11 10 12 13 12 12 13 14 13 12 13 12 11 12 14 14 14 15 16 15 14 14 15 14 9 7 8 7 6 6 5 5 4
8 9 9 10 10 10 10 9 9 10 11 12 12 13 14 15 16 17 18 18 18 18 18 18 18 18 17 17 18 16 15 16 15 15 17 17 17 16 16 18 16 13 14 16 17 16 15 18 16 8 7 10 10 12 14 12 10 10 11 11 12 13 13 13 12 12 12 12 12 13 14 15 16 17 18 16 15 16 15 9 8 9 7 6 6 5 4 4
8 9 10 10 10 11 10 9 9 9 11 12 13 13 13 14 16 16 17 17 18 18 18 18 18 18 17 16 16 16 15 15 14 15 16 16 16 16 16 17 17 13 12 14 15 15 15 16 16 11 8 10 12 12 13 14 13 12 12 11 11 11 12 12 11 12 13 12 12 12 12 15 16 17 17 17 16 16 15 11 9 8 7 6 5 5 4 4
9 9 9 9 10 10 9 9 9 9 10 11 13 13 13 14 15 16 16 16 17 18 17 17 18 18 17 16 15 16 15 15 14 14 15 15 16 18 16 17 17 13 12 13 15 15 15 15 15 12 10 11 13 12 11 13 14 13 13 12 12 12 12 12 11 11 12 12 12 12 12 14 16 16 17 17 17 17 14 11 10 8 7 6 5 5 5 4
9 9 9 9 8 9 9 9 10 10 10 11 12 13 14 14 14 15 15 15 15 16 16 16 17 17 16 16 16 16 16 15 14 13 15 15 16 18 17 16 15 14 14 15 14 13 14 14 14 13 12 11 11 9 8 10 11 12 12 12 12 12 12 13 12 11 11 11 12 11 11 14 15 15 15 16 16 15 12 10 11 9 7 6 5 5 4 3
9 9 8 8 8 9 9 10 10 10 10 11 13 13 13 14 13 14 15 15 15 15 15 16 16 16 16 16 17 16 16 16 15 14 15 15 15 16 17 15 14 14 15 15 14 13 13 14 14 14 13 11 9 9 9 9 10 11 11 11 11 12 13 13 12 12 11 11 11 10 11 14 14 12 12 12 11 11 9 9 11 9 7 6 5 4 4 3
9 9 8 7 8 8 9 10 10 10 10 11 12 12 13 13 13 13 14 14 15 15 15 16 16 16 16 16 16 16 16 16 16 15 15 16 15 15 15 14 14 15 16 16 16 15 14 15 14 13 14 13 11 11 10 9 9 11 11 11 11 12 12 12 11 11 11 12 12 11 11 14 14 10 10 11 11 10 9 8 9 8 7 6 5 4 3 3
9 9 8 7 7 8 9 10 10 10 10 10 10 11 12 12 13 13 13 14 15 15 15 16 15 16 16 15 16 16 15 16 17 15 15 15 14 13 13 12 13 15 15 15 16 15 15 15 14 13 13 13 14 14 13 11 9 9 10 10 10 11 11 11 11 11 11 12 12 11 12 15 15 13 12 12 12 11 10 8 7 7 7 5 4 4 3 2
10 9 9 8 7 7 8 9 9 10 10 10 10 10 11 11 12 13 13 13 14 14 15 15 15 15 15 14 15 15 15 15 16 16 14 15 14 12 9 9 11 13 13 13 14 14 15 14 14 15 14 14 15 16 14 12 12 11 11 10 10 10 10 11 11 11 11 11 11 12 13 14 14 14 14 14 13 11 11 10 8 7 6 5 4 4 3 2
10 10 10 9 8 8 8 9 8 8 9 10 10 11 11 11 11 12 12 12 13 14 14 15 14 14 15 14 14 15 15 14 15 15 14 14 14 11 7 7 9 9 10 12 13 13 14 14 14 14 14 15 16 16 14 13 14 14 12 11 10 9 9 10 10 11 12 12 11 13 14 13 14 14 14 15 14 12 10 10 9 7 6 5 4 3 3 2
10 11 11 11 11 9 9 9 9 8 9 10 11 12 12 11 11 11 11 12 13 13 13 14 14 14 15 15 14 14 15 14 14 14 14 14 14 12 10 8 8 8 10 11 11 12 14 14 14 14 13 14 15 15 14 14 14 14 13 13 11 9 8 9 10 12 13 12 12 14 14 13 14 14 15 15 15 13 12 10 9 8 6 4 4 3 2 2
10 11 11 11 12 11 10 10 9 8 9 9 10 11 12 12 11 11 11 11 12 12 13 13 14 14 14 14 15 15 15 15 14 14 14 14 14 13 13 12 9 7 9 10 10 10 12 14 14 14 13 13 13 13 13 13 12 12 12 13 12 10 9 9 10 11 12 12 13 13 13 13 14 14 15 14 14 14 12 10 9 7 6 4 3 3 2 2
10 10 10 10 11 11 11 10 9 9 9 9 9 10 11 11 12 12 12 12 11 11 12 12 13 14 14 14 14 15 15 16 16 15 15 14 14 13 14 14 11 7 7 9 9 9 11 13 14 13 13 13 13 13 12 11 11 11 12 12 12 11 10 10 10 10 10 10 11 12 11 12 13 14 14 14 13 12 11 10 8 7 5 4 3 2 3 2
11 11 11 10 10 10 10 10 9 9 9 9 9 9 10 10 11 12 12 12 13 12 12 12 13 13 13 13 13 14 15 16 16 16 15 14 15 15 14 14 13 10 7 8 9 9 10 11 12 12 12 12 13 12 11 10 10 10 10 11 11 11 11 11 11 11 10 10 10 10 10 10 12 13 13 12 12 11 11 10 8 6 5 4 3 3 3 2
11 10 11 11 10 10 10 9 9 9 9 9 9 10 10 10 11 11 11 12 13 13 13 13 13 13 12 13 13 14 15 16 16 16 15 15 15 15 15 13 13 12 8 7 8 9 10 11 12 11 11 12 11 10 9 9 9 9 11 12 12 11 11 11 11 11 11 11 10 10 10 12 13 13 12 12 11 10 10 10 8 7 5 3 3 3 3 2
Height
835 834 833 832 831 830 828 827 826 825 823 822 821 819 817 816 814 813 811 810 809 807 806 806 805 805 805 804 804 803 803 802 802 801 801 803 804 803 802 801 801 800 799 798 796 796 795 794 794 793 792 794 798 799 798 799 800 801 808 813 816 823 820 815 819 819 815 814 814 816 816 817 821 827 828 828 832 835 836 837 837 836 835 835 835 836 838 838
835 834 833 832 831 830 829 827 826 825 824 822 821 819 818 816 815 814 812 811 810 808 807 806 806 805 805 805 804 804 803 802 802 802 802 804 803 802 802 801 801 800 799 798 797 797 796 796 795 794 794 797 800 799 799 800 801 804 812 814 815 819 815 810 812 813 812 810 811 815 817 815 816 822 825 826 835 837 835 840 841 839 838 837 836 837 837 838
834 834 833 832 831 830 829 827 826 825 824 822 821 819 818 817 815 814 813 812 810 809 808 806 806 805 805 805 804 804 803 802 803 803 803 803 803 803 802 801 801 800 799 798 798 797 797 797 795 795 797 799 802 801 800 801 802 806 810 811 813 814 811 811 810 810 809 808 809 814 817 816 816 821 822 824 834 836 833 836 838 838 838 837 837 837 837 837
834 833 832 832 831 830 829 828 826 825 824 822 821 819 818 817 816 814 813 812 810 810 808 807 806 805 806 805 805 805 803 805 806 804 803 803 803 802 802 801 800 800 799 798 798 798 797 797 796 796 798 801 804 803 803 803 804 808 808 808 810 811 811 809 809 809 809 809 808 812 817 817 818 821 821 823 830 832 831 827 825 828 832 834 835 836 836 836
834 833 832 831 830 829 828 827 826 825 824 822 821 819 818 817 816 814 813 812 811 810 808 808 806 806 806 805 806 804 805 812 808 802 803 803 802 802 801 801 800 800 799 798 798 798 797 797 796 799 801 803 805 804 806 807 806 808 808 808 809 811 811 807 809 810 810 811 809 813 815 814 818 820 820 820 817 817 819 818 819 821 825 830 832 834 835 834
834 833 832 831 830 829 828 827 826 825 823 822 821 820 818 817 815 814 813 811 811 810 809 808 806 806 806 805 807 804 809 815 806 801 803 803 802 802 801 801 800 800 800 799 798 798 798 798 798 803 806 806 810 809 808 809 807 808 810 811 811 811 809 806 809 810 811 811 809 811 812 815 819 818 820 818 810 811 814 815 819 823 825 828 830 832 833 833
833 832 832 830 830 828 827 826 825 824 823 822 820 819 818 816 815 814 812 811 810 809 809 808 807 807 806 806 806 806 811 810 803 803 803 802 803 802 801 801 801 800 800 799 799 799 801 802 802 808 809 808 813 811 809 809 808 809 810 811 812 812 809 807 808 810 811 809 808 811 811 815 816 815 821 819 813 817 817 816 821 824 827 828 830 831 831 831
833 832 831 830 829 828 827 826 825 824 822 821 820 819 817 816 815 813 812 811 810 809 808 807 807 807 806 807 807 810 812 807 803 804 803 803 803 802 802 802 801 801 800 800 800 801 803 805 807 810 810 811 813 812 810 809 808 810 811 811 812 812 809 809 810 810 810 809 811 812 810 813 814 815 818 816 816 820 819 818 822 824 827 828 828 830 830 831
833 832 831 830 829 828 827 825 824 823 822 821 819 818 817 816 814 813 811 810 809 809 808 807 807 806 807 807 809 813 810 804 804 804 803 803 802 802 802 802 801 801 800 801 802 801 804 807 809 809 809 812 813 812 812 811 812 812 811 811 811 811 811 811 811 810 810 810 811 810 810 813 817 817 813 813 818 820 820 820 822 824 826 828 828 829 830 830
833 831 831 830 828 827 826 825 824 823 822 820 819 818 816 815 814 812 811 810 809 808 807 807 806 806 807 807 811 815 808 803 804 804 804 803 803 803 802 802 802 801 802 802 802 802 804 807 808 808 809 812 812 813 814 812 813 813 812 811 810 811 812 811 809 810 811 811 811 810 811 815 819 817 809 811 820 819 821 823 824 825 825 827 828 829 829 830
833 832 831 829 828 827 826 825 823 822 821 819 818 817 816 815 813 812 810 809 808 808 807 806 806 806 806 807 813 814 805 803 805 803 804 803 803 803 802 803 802 802 802 802 803 803 804 805 807 808 809 811 812 813 813 811 812 813 812 809 809 810 809 811 810 810 811 810 811 810 812 817 821 815 804 809 818 819 821 823 825 825 825 827 827 828 829 829
832 831 830 829 828 827 826 824 823 822 820 819 818 816 815 814 812 811 810 808 808 807 807 806 806 806 806 809 811 809 804 805 805 804 804 803 804 803 803 803 802 803 802 803 804 804 805 805 806 807 810 811 812 814 812 811 812 812 812 811 809 808 806 810 811 810 810 809 809 810 812 815 815 808 801 809 817 820 822 823 825 826 826 827 827 828 829 828
832 831 830 829 828 827 825 824 822 821 820 818 816 815 814 812 811 810 808 808 807 806 806 805 806 805 807 810 807 804 804 805 804 804 804 804 804 804 804 804 803 803 803 804 804 804 805 805 806 808 810 811 813 813 811 812 812 811 815 816 815 812 808 810 812 811 810 809 807 810 813 807 802 801 804 812 816 819 823 823 824 825 826 827 827 828 827 827
831 830 829 828 827 826 825 823 822 821 819 818 816 814 812 811 810 809 807 807 806 806 805 805 805 805 808 808 804 803 804 804 804 804 804 804 804 804 804 804 804 804 804 804 805 805 805 805 806 808 810 812 813 812 813 815 814 814 817 821 825 823 811 808 812 811 809 811 808 812 816 803 794 798 806 813 815 817 820 821 823 824 824 825 826 826 826 826
829 829 828 827 826 825 824 823 821 820 818 817 815 813 811 809 808 807 806 805 805 806 805 805 805 805 809 807 803 804 804 804 804 804 804 805 804 805 805 804 804 804 804 805 805 806 806 806 806 809 812 812 813 814 816 817 818 821 819 820 830 829 816 808 811 811 807 810 811 813 816 805 794 796 804 812 814 815 816 818 821 821 822 824 824 825 824 824
828 828 827 826 825 824 823 822 821 819 817 816 814 812 810 808 807 805 805 804 804 805 804 805 804 806 810 807 803 803 803 803 804 804 804 804 804 805 805 804 805 805 805 806 806 806 806 806 810 814 813 812 816 816 817 819 821 826 826 822 826 828 824 815 809 811 809 809 811 811 811 802 794 798 807 812 813 814 814 816 819 819 820 821 821 822 822 822
828 827 826 825 824 823 822 821 820 818 817 815 813 810 808 807 805 803 803 803 804 803 804 804 804 806 808 805 804 803 803 802 803 804 804 804 805 805 805 805 805 805 806 806 806 807 806 808 813 815 815 818 822 819 820 824 822 825 830 826 826 828 829 822 811 811 812 811 811 811 811 802 792 797 809 812 812 814 813 813 815 816 818 818 819 819 819 820
827 826 825 825 823 823 822 821 820 818 816 815 812 810 807 805 804 803 803 803 803 804 805 804 805 810 808 803 803 802 801 802 802 803 803 804 804 804 805 805 805 806 806 807 807 807 807 810 814 814 816 819 820 819 822 826 823 824 829 827 829 830 828 825 818 813 812 811 811 813 812 804 793 794 804 810 812 812 809 808 810 813 816 816 817 817 816 817
826 825 825 824 823 823 821 820 819 818 816 814 812 809 805 804 803 802 802 803 804 805 806 805 804 808 806 800 801 801 800 802 802 802 803 804 804 804 805 805 806 806 808 809 807 809 810 812 815 816 816 816 816 818 819 821 822 824 828 829 830 829 825 821 818 815 814 813 811 812 811 803 795 790 795 805 809 808 806 805 808 811 813 814 814 814 814 814
825 824 824 824 823 822 821 820 819 818 817 814 812 809 807 808 808 806 805 803 803 804 804 803 801 802 801 800 800 800 801 802 802 802 802 803 803 804 805 805 807 807 809 810 809 813 816 814 816 816 814 813 815 818 818 821 824 825 828 830 830 832 825 815 815 817 818 816 809 807 809 805 797 789 788 798 806 807 806 804 805 808 809 810 810 810 810 811
824 824 823 823 822 822 821 820 819 818 817 815 814 812 812 815 815 814 811 804 801 802 801 801 801 800 799 800 800 800 801 802 801 802 802 803 804 805 806 807 809 810 813 816 814 816 818 816 813 812 812 813 815 819 822 824 825 826 828 829 830 834 827 814 816 819 819 819 809 805 810 805 798 790 783 793 801 799 799 798 797 801 803 804 805 806 807 809
824 823 822 822 821 821 820 819 819 818 817 816 815 815 815 817 817 817 816 810 803 801 802 801 801 801 799 800 800 800 802 803 803 801 802 803 804 805 807 808 810 810 815 819 816 817 820 813 807 811 817 818 819 822 824 824 826 828 830 831 829 830 826 817 818 822 820 819 809 805 810 804 798 791 780 784 792 788 786 787 787 791 796 798 799 802 804 805
823 822 822 821 821 821 820 819 818 817 817 816 816 816 816 816 817 817 817 816 807 801 801 801 800 800 800 799 799 800 802 803 802 800 801 803 804 806 806 808 811 812 815 814 812 817 816 807 808 816 819 816 818 822 823 824 827 827 829 830 825 825 825 818 817 821 819 818 812 808 809 803 796 789 776 776 782 780 779 781 783 786 788 790 793 796 798 799
822 821 821 820 820 820 819 819 818 817 817 816 816 816 816 816 817 817 816 816 809 801 800 799 799 799 798 798 797 798 801 801 800 799 800 801 804 806 805 808 813 813 814 813 813 814 809 809 817 820 817 815 817 821 822 822 823 824 826 825 821 820 822 820 822 824 819 816 816 810 799 790 789 785 774 774 780 779 778 780 782 784 785 788 791 793 794 795
821 821 820 820 820 818 819 818 817 817 816 816 816 815 817 816 816 817 816 816 811 802 799 798 798 797 795 796 797 797 800 799 798 799 799 800 802 805 806 809 811 810 813 817 817 813 809 817 822 817 817 820 819 820 821 821 822 822 819 818 817 815 819 823 826 825 819 815 818 818 803 784 781 783 776 774 778 776 777 780 778 779 784 787 788 788 792 793
821 821 820 820 819 818 819 818 817 818 816 816 816 815 817 816 817 817 816 822 815 799 797 797 796 795 793 795 797 797 799 799 798 798 799 800 800 801 805 810 811 810 814 818 817 812 813 822 822 816 818 821 821 822 822 822 825 823 818 819 820 819 823 826 826 824 820 818 820 826 822 799 779 776 772 770 772 769 772 777 775 776 780 782 782 782 787 791
820 820 820 819 819 819 819 818 818 817 816 817 816 816 817 815 818 816 817 830 818 792 792 797 796 794 792 796 796 796 799 798 798 799 799 800 800 800 803 808 811 811 814 817 813 811 814 818 820 818 819 821 822 819 819 823 823 821 822 825 821 821 824 826 828 827 826 828 824 823 828 816 789 776 770 768 770 767 766 768 770 774 776 775 777 779 783 786
819 820 819 819 819 819 819 818 818 817 817 817 816 817 817 816 819 815 823 836 813 784 787 794 794 793 793 796 796 796 798 796 797 800 799 800 800 801 803 805 806 806 812 815 810 809 812 811 812 815 818 821 817 812 815 820 817 817 826 829 824 824 826 827 829 829 833 835 822 815 826 820 790 774 775 777 774 767 761 758 759 765 770 770 773 777 780 783
818 818 818 819 818 818 818 818 817 817 817 817 817 817 816 818 818 817 832 834 800 780 788 791 792 794 795 798 798 798 799 797 799 800 800 801 800 801 804 807 807 806 811 813 807 807 813 813 813 813 814 813 811 815 820 817 814 820 828 827 826 829 830 832 832 829 836 834 814 808 821 815 781 760 770 780 772 762 755 752 752 755 762 766 771 775 777 781
817 817 818 818 818 818 817 817 817 816 817 817 817 817 817 819 820 827 842 827 794 787 793 791 794 796 797 800 800 801 801 799 800 801 801 802 801 803 807 809 809 809 813 816 811 810 816 820 820 814 811 811 813 824 830 824 822 826 826 822 822 827 832 838 839 835 833 819 801 801 810 811 789 761 760 762 751 745 744 744 747 751 758 764 768 771 774 777
816 817 817 817 817 817 816 816 816 815 817 817 817 818 818 820 827 836 833 808 791 793 793 793 799 797 797 800 799 801 802 800 801 801 801 804 804 805 808 808 810 813 816 815 812 815 817 817 815 812 814 816 814 821 829 830 830 826 822 820 818 821 827 832 835 837 828 803 792 802 810 813 796 764 753 750 740 741 743 740 739 743 753 761 764 767 770 774
815 816 816 816 816 816 816 815 815 815 816 816 818 818 820 828 833 829 815 796 790 791 787 792 799 798 800 801 798 801 802 799 801 801 801 805 806 804 804 802 803 807 812 812 810 812 811 809 812 812 815 815 810 815 825 828 827 824 822 823 823 826 828 824 822 825 817 799 798 811 813 805 782 754 749 750 741 741 744 742 739 740 749 758 761 764 767 772
814 814 815 815 815 815 815 814 815 816 815 816 818 818 824 834 826 813 804 793 786 788 788 791 797 798 800 799 796 800 801 798 800 801 802 807 808 804 802 803 803 798 802 814 815 808 802 804 812 811 808 809 806 808 814 816 821 823 820 818 820 829 834 824 818 816 806 796 803 816 811 790 762 742 741 740 736 736 740 743 744 744 748 753 757 761 764 769
812 813 813 812 813 814 814 814 815 814 815 816 817 821 831 832 815 803 800 790 786 792 793 794 799 800 799 797 796 798 797 796 799 801 803 807 809 803 799 804 808 799 800 814 815 810 806 799 800 802 801 804 803 801 802 806 818 824 820 817 815 818 822 816 809 806 800 793 799 811 803 774 747 734 734 736 737 741 744 747 750 749 749 751 755 760 764 767
810 811 811 810 812 812 812 814 814 815 816 814 816 824 826 815 804 801 795 788 789 793 794 798 799 799 799 799 799 798 792 791 799 803 802 804 804 799 792 794 801 801 801 808 809 814 816 799 796 805 807 806 804 804 806 804 810 825 826 820 814 809 808 810 809 810 814 809 800 799 785 760 743 733 735 742 742 743 747 749 751 750 749 754 756 758 762 764
809 809 808 808 808 810 812 813 813 815 815 813 819 820 805 792 792 792 785 781 784 786 793 799 798 798 800 797 796 797 792 793 800 801 801 803 801 797 792 786 792 795 791 797 801 805 807 798 801 811 809 810 810 808 809 801 800 819 823 812 813 816 807 807 814 820 829 820 795 781 770 754 744 732 730 743 742 738 744 747 749 750 751 754 755 756 760 761
807 806 805 804 805 808 810 811 813 815 814 814 813 802 786 781 781 779 777 778 781 782 788 792 791 791 793 791 789 791 792 795 800 798 798 800 792 788 790 784 786 787 779 783 789 790 793 791 799 808 800 808 820 812 809 809 805 811 812 806 813 819 812 813 820 821 829 823 795 778 771 756 747 737 730 741 742 732 736 745 750 753 754 754 753 754 757 758
804 805 801 798 801 805 807 811 813 813 815 815 805 788 780 779 775 772 773 776 778 780 783 785 782 781 785 785 785 789 792 791 796 797 794 793 783 777 781 778 780 784 778 779 782 787 794 788 797 817 810 809 819 810 804 811 813 809 808 810 812 810 811 818 823 818 821 823 799 779 772 750 734 731 723 728 733 724 729 745 751 750 751 751 751 754 757 758
804 804 797 792 797 802 804 808 810 813 815 810 798 787 780 775 772 770 768 769 772 775 778 776 774 776 781 782 780 786 790 788 792 794 787 786 781 773 772 769 774 785 783 781 782 787 795 788 792 817 822 813 812 807 800 803 814 815 812 815 812 809 810 813 817 813 809 813 797 783 776 740 712 716 713 713 721 717 723 741 747 744 744 747 749 752 755 756
802 802 793 787 792 797 801 807 810 813 809 795 785 782 778 773 771 768 765 767 768 768 771 772 772 774 777 780 780 780 784 785 788 788 781 779 776 770 770 765 769 784 788 786 785 787 795 793 790 810 825 815 802 798 792 789 800 808 809 813 812 812 815 813 815 810 803 807 801 797 787 736 700 708 708 706 714 712 717 731 738 741 740 742 747 748 751 752
801 800 791 786 791 793 799 806 806 804 798 785 777 776 775 772 769 766 766 767 766 763 766 768 768 768 770 776 779 776 779 782 784 784 779 775 770 764 763 761 764 779 788 788 786 784 789 793 792 802 812 803 788 790 793 788 788 792 795 798 798 803 810 810 810 805 802 803 793 796 789 732 697 709 707 704 710 708 715 725 729 735 737 739 744 744 746 748
797 796 788 787 790 790 795 799 794 792 789 779 773 772 771 768 767 766 765 767 768 766 766 765 764 765 766 766 768 770 773 775 779 781 774 768 764 756 755 759 763 769 775 780 783 782 785 790 791 791 792 792 792 798 803 798 792 792 791 790 790 795 797 796 797 795 800 798 786 799 790 724 694 712 709 706 711 709 718 724 722 729 732 735 740 741 744 747
789 788 787 787 788 789 794 793 787 786 781 771 768 769 768 767 767 766 764 766 767 765 765 763 759 760 762 760 762 765 766 767 769 771 768 763 758 753 753 759 764 766 768 773 779 782 784 786 787 784 781 789 798 801 802 801 799 793 789 790 790 785 780 782 785 787 792 789 786 803 782 713 696 719 717 715 720 717 723 724 718 725 729 732 738 739 742 745
781 784 786 787 788 789 789 782 776 777 775 771 771 769 766 765 763 763 762 761 760 759 758 756 754 755 756 757 758 759 762 762 760 760 759 755 754 753 753 756 760 760 760 761 764 772 778 780 783 786 784 785 790 794 796 800 800 790 781 785 785 777 779 785 788 792 788 775 779 792 760 704 701 722 719 717 721 717 721 724 721 724 727 730 735 737 740 743
777 780 781 782 784 784 778 770 768 770 770 771 772 768 767 765 757 755 757 755 752 753 752 751 752 753 754 757 757 757 759 756 752 753 752 751 753 755 756 758 756 752 752 753 754 760 767 771 774 780 784 781 771 767 773 782 791 789 781 782 781 778 781 780 783 790 779 765 773 771 736 701 700 711 713 713 714 714 717 722 724 724 725 729 733 734 738 741
772 773 773 778 780 778 772 767 769 770 767 770 772 769 767 762 752 748 752 752 750 751 751 749 750 752 753 756 757 755 755 752 749 749 749 748 749 754 762 764 758 755 756 756 756 758 763 766 763 761 763 761 748 742 752 764 770 772 771 773 775 776 776 775 779 777 764 764 767 743 719 710 700 698 706 707 705 711 712 713 719 722 723 727 729 731 734 737
763 759 759 766 771 773 770 767 769 769 766 767 766 759 755 755 752 749 749 748 747 750 752 748 748 750 749 750 753 751 748 750 750 746 745 746 747 756 768 768 764 763 761 759 758 758 760 760 756 752 750 744 736 736 747 753 751 751 756 763 770 773 776 778 772 755 750 763 752 716 712 720 699 686 698 699 696 705 710 709 712 715 718 722 724 728 731 735
752 745 744 748 751 756 758 755 758 765 767 763 756 749 747 748 750 748 745 745 746 748 749 746 742 740 737 739 746 747 746 749 748 742 741 742 745 753 760 764 767 766 762 763 762 757 757 752 744 748 751 744 738 737 744 748 746 745 746 747 757 770 774 770 756 742 744 750 728 702 708 713 691 681 688 688 689 696 698 702 705 708 713 718 721 726 729 731
742 739 739 740 737 738 741 741 749 759 761 759 756 749 742 738 737 738 741 746 747 742 741 739 731 727 732 737 741 742 742 739 734 732 734 738 742 746 748 751 762 768 764 763 763 762 757 745 738 745 749 745 741 740 745 750 749 749 743 735 744 760 761 755 747 739 740 736 716 706 712 703 682 676 678 679 685 690 691 696 702 705 710 715 719 722 724 725
731 731 734 738 736 735 737 740 748 753 752 756 757 746 736 733 731 732 736 738 738 736 736 732 722 722 732 738 739 734 723 716 717 720 726 733 737 741 740 736 746 766 768 761 762 765 756 743 738 744 747 741 736 739 748 751 751 751 739 724 732 745 745 745 744 739 739 735 719 716 721 704 675 668 675 678 682 688 690 693 697 701 706 711 714 717 718 719
723 724 728 734 734 733 736 737 743 747 747 750 747 735 731 731 726 728 732 727 724 725 727 725 721 724 732 736 733 722 708 707 713 714 717 724 724 725 727 725 730 750 763 761 758 759 758 750 743 748 752 739 731 741 751 751 758 760 737 716 723 733 730 727 726 724 727 728 722 724 726 702 671 665 675 678 681 685 686 687 692 698 702 705 708 710 711 713
721 723 723 728 727 726 731 734 737 739 734 732 729 724 725 724 721 728 732 723 715 716 719 720 722 727 732 729 718 705 700 705 710 711 714 718 717 716 719 723 724 732 748 759 755 751 753 748 742 750 753 740 739 753 756 759 768 751 714 697 707 719 720 716 711 708 709 713 716 713 701 680 666 670 675 675 678 682 681 681 687 693 698 701 702 702 705 708
Wind_Speed
12 12 13 14 15 16 17 18 19 20 20 21 22 23 24 23 21 19 18 18 17 13 6 1 4 4 5 6 3 6 7 8 9 13 12 6 8 9 10 11 10 12 12 11 11 6 3 6 7 12 7 3 3 2 2 2 2 5 3 4 1 3 3 5 7 7 5 4 6 6 5 8 5 3 4 4 9 5 6 6 3 5 6 6 11 16 17 15
11 11 12 13 14 15 16 16 17 18 19 20 21 22 23 24 23 20 18 17 16 14 9 2 4 6 5 4 1 6 8 7 6 11 10 7 9 10 9 9 9 10 12 10 11 9 5 5 7 8 6 2 3 2 2 1 3 4 3 3 2 5 3 4 7 6 4 5 6 4 5 6 7 7 5 3 2 3 7 4 3 5 5 6 11 14 14 15
10 11 12 12 13 14 15 15 16 17 18 19 20 21 22 24 24 22 19 16 15 14 11 5 2 6 6 3 1 6 9 6 3 5 6 7 8 8 9 9 9 10 12 9 8 8 4 4 4 4 4 2 2 2 3 3 1 2 4 3 4 6 3 3 6 7 5 6 7 5 4 3 5 7 4 6 6 4 5 5 4 4 6 6 7 11 14 14
10 11 11 12 12 13 14 15 15 16 17 18 19 21 21 23 24 24 21 17 14 13 12 8 2 5 7 5 1 5 8 5 1 2 4 6 6 8 9 9 10 11 11 10 8 7 5 3 3 4 4 2 3 3 3 3 1 1 3 3 5 4 2 5 6 6 5 5 7 6 5 4 5 5 4 9 7 4 7 10 10 13 14 11 8 10 13 13
10 11 11 12 12 13 13 14 14 15 16 17 18 19 20 22 23 24 23 18 14 13 11 9 5 3 7 7 3 6 8 4 2 2 3 3 5 6 7 9 11 11 11 11 10 8 7 5 5 6 4 2 5 4 3 4 2 1 1 2 5 4 2 5 4 4 3 3 4 6 6 5 4 2 6 12 9 6 7 11 12 14 16 13 11 12 12 12
9 10 11 12 12 13 13 13 14 14 15 16 17 18 20 21 22 24 24 20 15 13 11 8 5 2 4 7 6 5 4 1 3 2 2 1 4 6 6 8 11 11 10 11 12 10 9 8 6 5 4 3 4 3 2 5 3 1 3 2 2 3 3 3 2 3 4 5 5 6 4 5 6 1 6 12 9 5 4 7 9 10 15 15 14 12 10 9
8 10 11 12 12 13 13 14 14 14 15 16 16 18 19 20 21 23 24 22 16 13 11 7 4 2 1 4 4 3 3 2 4 2 3 1 2 5 5 6 9 9 8 11 14 8 6 8 6 3 3 3 2 2 3 5 4 3 2 2 1 2 3 3 3 4 6 7 6 5 4 6 7 3 3 8 5 4 1 8 12 13 16 16 13 10 10 10
8 9 10 11 12 13 13 14 15 15 15 16 17 18 18 20 21 22 24 23 16 12 12 8 1 3 3 2 1 3 2 3 3 3 4 2 2 5 5 5 7 8 7 12 11 4 4 7 3 2 2 1 1 2 4 6 5 3 2 2 1 1 4 3 1 2 5 5 2 5 4 5 7 5 5 7 3 2 5 11 12 13 13 12 10 9 9 10
8 9 10 11 12 13 13 14 15 15 16 16 17 18 18 20 20 21 24 23 17 12 12 8 2 4 3 2 5 2 4 2 2 4 4 3 3 4 4 4 6 7 7 10 9 5 3 2 1 1 1 1 1 2 4 4 2 2 2 2 1 2 4 2 1 4 5 2 3 5 3 4 3 3 4 6 5 5 8 10 10 11 10 9 9 9 9 9
9 9 10 10 11 12 13 14 15 16 16 17 18 18 18 19 20 21 23 24 17 11 12 8 2 3 4 2 5 1 3 0 2 3 2 2 3 3 3 4 6 6 6 7 8 7 5 4 3 3 4 1 1 2 2 1 1 3 2 4 4 3 3 2 5 7 4 2 3 6 3 4 1 1 4 5 7 7 9 10 8 9 9 9 8 8 10 10
11 11 11 11 12 13 14 14 16 16 17 18 18 18 19 19 20 21 23 23 15 10 11 6 2 3 3 3 5 3 3 1 1 2 2 2 2 3 4 5 5 6 5 6 7 7 6 6 6 4 2 0 1 2 1 2 1 1 1 5 6 5 4 2 5 6 3 2 4 6 0 2 0 2 6 8 9 9 11 10 8 9 8 8 8 7 9 11
12 12 12 13 13 13 14 15 16 17 18 18 19 19 19 19 20 21 24 22 12 10 10 4 3 5 3 3 3 5 3 2 1 1 2 3 2 3 5 5 5 5 4 4 5 6 6 6 6 4 0 1 0 2 0 1 0 1 4 4 8 8 6 3 3 4 3 3 4 6 1 3 5 7 5 10 11 8 10 11 9 9 8 7 8 6 6 11
12 13 13 14 14 14 15 16 16 17 18 19 20 20 20 20 20 21 24 18 9 10 9 2 3 6 4 1 4 4 4 4 2 1 3 4 2 2 5 6 4 5 4 5 5 6 6 4 5 3 2 4 0 1 1 3 2 1 4 2 5 8 6 4 1 1 3 4 4 4 3 6 10 10 4 10 12 11 10 11 10 8 7 7 7 6 7 10
12 12 13 14 14 15 16 16 17 18 19 20 20 21 21 21 21 22 22 14 7 9 7 1 3 6 4 2 4 4 6 5 3 0 3 4 2 1 4 6 3 5 6 6 6 6 5 3 5 4 2 3 0 1 3 6 4 1 2 2 3 4 4 6 2 3 4 3 3 4 4 8 10 9 6 10 13 14 13 12 11 9 8 8 7 7 7 9
12 12 13 13 14 15 16 16 17 18 19 20 20 22 22 21 23 23 19 9 6 7 6 2 5 5 2 3 3 4 7 5 4 2 2 4 4 2 4 4 2 4 6 6 6 5 4 3 5 4 1 1 4 3 3 4 4 3 2 3 3 1 5 9 4 5 4 1 3 5 4 9 9 7 7 11 12 14 14 12 12 11 10 9 8 8 7 8
13 12 12 12 13 14 15 16 17 18 19 20 21 22 21 22 23 20 13 6 7 7 4 3 6 5 1 2 1 3 6 6 5 4 4 4 4 3 4 2 3 4 4 4 5 4 3 4 4 2 0 2 5 4 3 4 4 4 1 2 4 2 4 7 4 2 2 0 2 4 4 7 8 4 3 10 12 12 11 11 12 12 11 10 9 8 7 7
14 13 13 12 13 14 15 16 17 18 19 20 21 22 22 21 20 14 8 4 6 5 1 3 5 4 0 1 1 2 4 6 6 4 5 5 4 4 2 2 3 3 3 3 2 1 3 4 1 1 2 3 3 4 4 4 3 4 3 1 4 3 3 5 5 4 1 2 4 5 5 11 11 3 3 9 12 12 11 12 13 12 10 10 9 8 8 9
17 15 14 13 13 14 14 15 16 17 19 20 21 23 22 18 14 8 3 3 2 1 2 2 3 2 3 2 2 2 3 4 5 4 5 5 4 4 1 1 2 3 4 3 1 1 2 3 2 1 3 4 3 5 1 4 3 3 3 2 4 3 4 6 6 4 2 2 5 4 6 14 16 8 4 9 10 13 14 13 12 11 11 10 9 9 8 9
20 17 15 15 14 14 14 15 15 16 19 20 20 21 17 11 7 4 2 1 0 1 2 2 2 3 3 3 2 2 2 2 3 4 4 4 3 2 2 3 3 2 2 1 1 2 2 3 4 1 2 3 2 4 6 7 6 6 5 4 4 5 6 7 6 4 2 3 7 7 8 13 16 14 7 8 10 13 14 11 9 9 10 10 9 9 9 10
22 19 17 15 14 14 14 14 15 16 17 19 20 17 9 4 5 3 3 3 3 3 2 4 4 2 2 1 1 3 2 2 3 4 4 3 1 1 1 4 5 3 2 1 2 2 5 3 2 4 5 6 7 6 6 5 5 4 3 4 5 5 7 8 4 4 1 2 8 8 8 12 15 17 12 8 10 11 12 12 10 10 11 11 12 12 11 10
22 22 19 15 14 13 13 13 14 14 15 16 17 11 2 1 2 3 5 7 6 2 3 5 3 3 3 1 2 3 2 1 2 3 5 2 2 3 1 3 3 0 1 1 2 3 5 2 5 8 9 8 6 6 5 3 3 2 3 4 5 5 8 9 4 5 2 3 7 5 6 11 13 17 14 7 10 13 15 16 15 14 13 12 13 14 11 8
22 22 20 16 14 12 12 12 12 12 12 12 10 3 2 2 2 1 1 5 8 1 1 3 2 4 4 1 3 3 3 0 3 3 5 2 2 3 2 3 3 4 2 1 1 4 4 3 9 8 6 5 4 5 6 3 3 3 2 2 4 4 4 8 4 5 2 2 6 6 6 11 12 17 18 9 11 14 16 18 17 16 16 14 14 13 12 10
19 19 19 17 14 12 12 12 11 11 10 8 6 1 2 2 3 2 1 1 7 3 1 1 2 3 2 2 5 6 4 3 3 4 5 4 1 2 3 4 3 1 1 2 4 1 1 5 7 4 6 7 3 2 4 1 1 4 3 2 5 4 1 5 4 5 4 2 6 9 9 9 10 15 19 12 10 12 13 15 14 13 15 15 14 13 13 14
17 17 18 16 14 11 10 12 11 9 8 5 4 2 2 2 3 2 0 1 4 5 2 3 3 4 3 2 6 8 3 3 3 3 4 6 3 2 4 5 4 1 3 5 7 4 6 6 2 6 6 6 3 1 2 2 3 4 6 6 6 6 5 6 4 5 6 4 4 9 9 7 7 12 14 6 3 9 10 9 11 11 11 10 10 11 13 14
17 18 19 17 13 10 9 11 8 5 5 4 2 2 2 3 3 1 2 2 3 5 2 3 1 3 5 4 5 6 2 1 3 2 2 4 5 2 1 3 3 3 5 4 5 3 7 4 4 6 3 4 5 3 4 6 3 5 5 9 9 8 7 5 5 6 5 4 3 7 7 6 3 6 10 5 3 8 6 7 12 12 9 8 10 12 12 11
17 17 18 17 12 10 8 6 4 3 4 4 3 2 2 4 3 1 3 4 3 5 1 2 1 4 6 4 3 4 2 2 3 1 3 3 3 3 2 1 1 3 5 4 2 3 3 2 4 6 5 4 4 4 5 7 3 4 4 6 7 4 2 2 4 4 1 3 2 4 2 8 3 3 10 8 7 11 7 8 13 11 9 11 12 12 11 11
14 14 16 15 11 9 7 3 4 4 3 3 2 2 2 3 2 1 2 4 4 3 3 1 1 4 5 2 2 4 2 3 1 2 3 3 1 2 2 3 1 1 4 3 2 3 3 2 4 4 5 5 4 5 6 8 6 3 4 4 5 4 1 2 3 1 3 3 4 3 4 8 8 5 9 8 8 13 11 11 12 10 11 14 13 11 11 13
15 15 15 13 8 6 7 6 6 3 2 2 1 2 3 3 2 1 3 1 4 1 2 1 1 3 2 1 2 3 2 1 3 1 2 4 2 3 1 5 6 4 2 5 4 5 3 4 5 5 4 4 6 6 7 10 5 5 4 4 5 4 3 3 3 1 2 3 6 5 7 4 9 5 3 3 4 12 14 15 14 12 14 14 12 11 12 12
15 14 14 12 8 7 8 7 5 4 3 2 1 2 4 4 1 4 3 3 3 1 1 0 2 1 1 2 1 2 1 2 2 3 2 3 2 4 2 5 6 4 1 3 5 6 0 4 7 8 5 6 6 3 6 9 4 3 4 4 4 5 4 3 3 1 2 2 9 7 7 4 8 4 2 2 3 10 12 12 12 11 13 12 10 11 11 10
12 9 10 11 9 7 6 6 7 7 5 3 2 4 4 2 3 3 3 5 2 1 0 1 2 1 4 3 2 2 0 1 0 1 3 1 3 6 2 2 5 4 1 3 3 5 3 1 3 4 4 6 4 2 1 4 3 2 5 4 5 5 4 4 2 3 3 4 10 8 11 8 6 3 6 4 5 7 8 8 8 7 9 9 10 11 12 10
12 10 10 11 9 7 4 3 5 6 5 3 4 5 3 2 3 4 7 6 3 1 1 1 1 2 5 5 2 1 2 1 1 2 1 1 2 4 2 1 3 3 3 5 4 5 5 1 2 2 2 4 6 4 2 2 2 4 4 4 4 4 4 4 4 4 1 6 7 4 8 9 8 6 5 5 6 6 6 7 8 8 9 10 10 11 11 10
16 12 11 13 11 9 7 3 1 1 3 6 6 4 3 0 1 4 5 4 2 3 3 3 2 3 4 3 2 3 3 2 2 4 4 3 2 3 3 4 4 0 4 3 3 5 3 4 3 3 1 5 6 4 2 5 4 4 4 4 3 4 4 3 3 0 3 7 4 2 4 5 11 10 9 10 11 10 9 9 10 9 8 10 11 11 10 9
16 11 12 15 13 12 11 7 2 1 4 8 5 4 5 3 6 5 5 3 2 2 2 2 1 3 6 3 3 3 2 2 3 3 2 3 3 4 5 4 5 3 4 3 1 3 4 5 1 1 2 3 8 5 2 2 1 4 4 4 3 1 1 4 4 3 5 6 3 4 3 5 9 8 12 16 16 13 9 8 9 7 8 11 11 11 9 9
14 12 15 16 13 14 13 9 4 2 5 7 5 4 3 6 6 5 7 7 3 1 2 2 3 3 4 3 4 4 3 4 4 5 2 2 1 4 5 5 4 3 2 2 0 2 3 6 3 5 2 4 9 6 5 5 4 4 4 4 5 5 3 4 4 4 6 7 4 3 3 4 4 3 7 11 10 7 5 6 6 6 7 8 8 9 9 10
14 16 18 16 14 14 13 12 8 4 6 6 5 3 7 8 4 3 6 6 2 1 2 2 4 4 2 3 3 3 4 4 2 5 4 4 4 5 4 6 6 5 5 2 2 2 3 7 6 2 1 5 6 3 4 6 2 2 3 4 3 5 5 3 4 4 1 6 6 3 4 6 4 4 6 5 5 4 4 5 3 5 6 6 7 9 10 10
14 18 18 16 16 15 14 14 11 7 7 6 4 7 10 7 5 5 5 4 4 4 4 2 3 4 4 3 2 3 2 1 2 3 3 3 4 5 4 5 7 9 8 5 3 2 2 6 4 1 1 3 3 2 2 3 3 2 2 3 4 4 5 2 4 2 4 3 6 3 6 8 6 7 6 4 3 6 5 5 3 5 5 7 8 9 10 11
15 17 12 14 17 18 17 14 11 10 6 5 7 10 7 6 6 6 4 4 4 5 7 3 3 5 5 3 4 5 2 1 2 3 3 3 3 5 5 5 6 13 12 5 3 4 3 5 4 2 2 2 1 1 2 2 3 5 3 5 3 2 4 3 1 3 3 3 6 4 9 12 6 6 4 2 2 9 8 5 4 4 6 8 9 9 10 11
15 13 10 16 22 20 17 15 12 10 4 3 11 11 4 6 6 5 5 5 3 4 6 6 6 6 7 5 4 5 5 4 4 3 3 3 4 5 7 4 6 10 10 4 2 2 2 3 4 1 2 3 3 1 1 3 3 5 3 3 2 3 1 2 2 2 1 3 7 5 8 14 9 6 7 4 7 10 9 5 5 6 9 10 9 9 10 9
14 9 7 15 23 20 19 17 13 8 3 6 13 10 4 6 5 5 7 6 4 4 5 7 6 4 5 6 5 4 6 6 6 4 4 4 5 4 6 5 4 3 3 5 5 2 3 2 4 2 2 2 3 1 4 2 2 2 0 1 1 3 4 3 3 3 3 3 7 5 8 14 9 6 8 8 9 10 9 7 8 11 12 11 9 10 10 11
10 5 2 10 21 23 22 18 10 6 6 9 11 6 3 3 5 7 8 7 4 3 5 5 5 5 5 5 4 4 5 6 6 5 5 4 4 5 6 5 5 3 1 3 3 1 3 2 4 2 3 1 2 4 7 8 5 3 2 2 2 1 2 1 2 2 3 4 5 3 8 15 6 5 7 8 8 10 10 9 10 12 12 11 10 10 11 12
5 5 3 12 26 28 23 13 6 6 7 9 9 6 2 2 4 7 8 7 5 2 3 5 7 7 5 5 4 4 5 5 6 6 5 5 5 5 7 8 8 7 3 4 2 3 3 3 3 2 1 4 5 4 4 7 7 6 6 7 7 5 3 1 4 3 3 4 5 3 8 17 7 4 5 6 7 9 9 10 10 11 12 11 10 12 13 12
5 5 2 12 31 33 20 6 5 6 7 8 7 4 3 3 3 5 6 6 6 3 1 3 7 8 5 5 5 6 6 4 6 7 5 7 10 8 7 9 10 11 8 4 3 3 3 3 2 4 5 6 5 3 1 2 3 3 5 5 6 6 6 5 7 5 2 4 4 3 7 17 6 4 4 5 6 7 7 10 10 10 11 11 11 11 11 10
6 5 1 13 33 29 12 5 5 5 7 8 5 4 3 3 3 4 6 7 6 5 4 5 6 8 7 5 5 7 7 6 7 8 5 7 10 9 7 11 11 9 6 3 2 1 2 2 3 5 4 2 3 4 3 3 2 3 6 5 6 8 8 7 6 3 2 4 4 3 10 17 4 3 2 1 2 4 6 9 11 9 8 9 11 11 10 10
4 3 2 15 33 24 9 8 7 8 10 8 8 9 6 4 6 7 8 10 8 6 8 9 6 6 8 6 7 8 8 6 7 8 8 8 6 5 9 14 13 10 6 5 5 5 3 2 3 4 5 5 3 3 3 3 1 5 6 5 9 11 8 3 1 1 4 9 8 5 14 17 5 3 2 3 3 4 5 7 9 8 7 8 10 10 10 9
4 3 1 14 26 17 7 6 5 7 12 12 12 12 9 6 8 11 12 12 10 6 6 7 5 6 6 4 6 8 8 10 9 6 8 8 4 2 5 11 14 12 6 4 6 8 5 4 5 6 7 8 7 5 4 3 3 3 4 7 12 14 12 6 2 5 10 10 9 10 17 19 12 2 1 5 6 6 7 7 7 7 8 8 8 9 10 10
4 4 2 6 11 9 6 5 3 3 8 10 10 10 14 13 9 9 12 13 11 6 4 4 3 6 6 6 7 10 11 13 10 5 5 6 4 3 1 5 10 7 2 2 7 7 3 3 8 11 12 12 14 12 5 6 4 5 7 11 14 15 16 10 5 8 9 4 7 18 21 21 23 16 8 11 11 8 8 8 8 8 8 8 9 10 10 10
5 5 5 6 4 6 8 7 7 5 3 7 7 7 15 19 12 6 9 11 9 8 6 7 5 7 9 10 11 11 13 13 12 12 9 5 2 3 1 1 5 4 1 2 6 5 3 5 13 16 17 18 19 17 7 7 7 10 10 12 13 13 14 13 14 17 9 3 10 25 23 19 28 26 17 17 16 9 9 10 10 10 9 9 10 10 10 10
6 4 6 9 6 7 10 12 13 9 6 8 7 6 12 17 15 11 8 6 7 10 9 8 11 17 19 15 11 10 10 11 13 16 13 7 4 1 1 1 3 4 3 2 3 4 4 9 15 15 16 20 20 20 12 7 10 11 12 15 13 12 15 19 23 23 13 9 19 27 24 23 27 27 22 20 16 11 12 12 11 10 9 9 9 10 11 12
7 3 3 9 8 8 11 15 15 12 14 14 9 9 14 18 19 14 6 4 5 12 14 14 19 24 21 14 10 9 12 13 15 15 13 10 8 5 3 4 2 2 5 4 3 2 4 10 15 11 12 17 20 18 12 11 13 12 19 24 14 14 19 23 23 23 19 21 26 27 27 29 28 26 25 21 14 10 9 8 8 9 9 10 11 13 14 15
8 3 4 5 6 7 6 9 12 12 15 14 11 15 18 19 19 11 6 9 10 10 14 21 25 20 15 15 14 16 21 21 18 14 11 11 10 8 7 7 3 2 4 6 3 2 5 8 9 6 7 15 18 14 9 11 13 13 24 29 18 15 20 20 19 20 19 22 27 27 25 26 26 26 24 19 13 9 8 8 9 10 11 12 13 14 15 15
14 6 8 4 5 8 5 5 10 9 9 11 14 18 17 18 21 14 7 12 17 13 13 22 27 16 9 14 20 25 29 25 20 16 13 13 12 9 7 7 8 7 6 6 4 3 6 4 1 3 6 14 12 6 5 5 4 11 26 32 24 18 19 19 19 19 18 20 24 23 18 20 24 23 18 13 10 10 12 12 10 9 11 14 14 15 16 15
16 7 9 7 6 9 8 6 9 10 10 12 17 20 17 17 18 13 8 10 17 19 14 17 21 13 8 16 26 31 29 24 19 14 8 9 9 7 5 6 10 11 9 7 4 4 7 6 3 4 7 12 5 4 4 4 3 11 22 25 23 19 19 20 21 21 22 20 17 16 17 20 22 18 15 13 11 11 13 12 10 10 11 13 15 16 17 15
Wind_Direction
25 24 22 22 21 20 19 18 19 20 20 20 23 25 24 24 24 26 25 23 26 30 41 125 172 168 157 140 79 24 27 35 44 53 57 27 2 9 5 2 3 6 4 359 7 19 2 9 351 352 19 92 10 330 13 29 70 54 81 87 105 168 173 174 178 193 170 179 196 205 173 132 167 208 159 58 48 73 67 42 26 37 40 82 119 131 141 148
19 20 19 19 17 17 17 16 16 17 18 17 18 20 21 21 20 22 23 22 20 23 30 37 183 185 178 163 26 7 359 352 25 44 39 18 15 14 7 3 1 5 7 8 14 18 12 345 333 358 32 64 348 337 17 21 78 81 112 90 210 197 189 188 175 185 172 170 183 189 175 161 174 170 153 110 112 131 92 43 15 62 61 94 123 134 140 142
15 16 16 15 13 13 14 14 13 13 15 15 14 15 17 17 15 16 17 18 18 18 21 23 209 210 203 203 351 2 347 345 16 22 12 14 22 18 12 2 2 10 12 19 22 19 12 319 322 21 44 53 358 347 17 13 29 137 111 79 240 210 201 222 178 192 211 177 163 169 184 199 178 160 148 138 162 191 153 159 149 156 171 152 153 146 140 137
14 13 12 13 11 8 8 9 9 9 10 11 11 9 11 13 11 10 11 13 13 14 15 17 346 232 219 225 304 343 344 9 334 319 4 14 26 25 19 8 10 12 11 24 27 20 21 8 44 50 53 37 342 8 24 346 353 119 108 151 218 175 166 218 191 203 214 175 164 148 144 176 177 159 147 139 147 236 220 198 182 177 175 168 174 160 145 138
14 10 10 10 8 6 4 2 3 4 4 4 5 4 4 6 7 5 6 7 7 8 10 10 2 263 231 225 237 331 359 45 260 316 8 13 30 24 21 14 11 9 9 23 22 23 29 37 61 43 46 34 350 22 4 322 52 53 329 184 188 136 154 229 204 196 165 134 146 134 146 167 154 153 165 159 172 223 222 208 194 172 165 163 164 160 150 140
9 7 7 5 5 4 1 359 356 356 356 356 357 358 358 359 1 1 0 3 2 360 1 5 6 329 238 224 239 327 27 113 265 340 339 344 30 19 18 6 9 9 3 17 22 28 29 25 48 44 33 38 19 34 319 315 24 35 316 345 209 179 179 219 191 194 144 127 169 169 168 136 127 202 194 185 201 257 253 180 168 156 154 152 150 152 150 146
4 3 2 360 360 359 358 356 352 350 349 348 348 351 353 353 355 356 355 357 357 353 353 357 8 51 139 218 244 2 55 254 285 327 305 299 11 7 10 355 4 1 357 22 26 32 41 29 44 78 47 36 33 5 318 320 21 86 292 322 260 227 216 204 165 177 157 164 198 166 132 144 168 194 176 211 239 335 354 128 133 140 144 146 145 152 153 151
358 357 356 355 353 353 353 352 350 348 346 343 343 344 347 348 349 351 351 351 353 349 345 346 346 150 108 110 161 17 348 262 295 306 293 288 309 343 352 351 355 353 22 42 36 50 69 41 45 112 47 19 112 347 341 347 16 83 255 291 43 289 272 275 103 169 181 185 165 118 149 199 199 171 159 218 234 90 128 120 127 136 139 148 152 157 157 154
349 349 350 349 346 347 346 346 346 345 343 342 340 340 343 344 344 346 346 345 348 343 339 342 285 197 192 108 92 12 290 248 312 304 291 289 303 328 344 4 0 2 46 55 48 67 84 68 212 160 112 191 145 336 346 6 345 205 233 288 292 293 300 300 181 221 222 202 112 136 221 268 213 170 192 208 174 151 135 124 135 138 143 158 157 164 165 164
338 339 342 341 341 341 340 341 341 340 341 338 337 337 339 339 338 340 341 341 342 336 338 336 270 195 205 147 86 309 266 67 303 300 311 302 320 340 1 16 10 15 52 63 56 68 98 153 176 140 128 129 20 336 354 87 202 213 237 273 271 290 300 212 198 234 233 226 183 169 239 281 240 231 242 206 165 159 134 131 148 144 157 166 162 175 172 175
330 332 334 334 336 336 336 337 336 336 335 334 334 333 334 335 334 334 336 338 334 329 335 327 227 172 179 125 112 209 240 84 292 327 347 319 356 17 30 21 17 27 50 68 74 81 103 150 147 120 104 72 332 344 312 202 190 213 310 299 300 325 312 221 211 240 196 195 179 139 121 287 313 278 226 183 163 162 144 147 164 159 168 170 170 179 176 182
322 325 327 329 332 332 334 333 333 333 331 331 330 329 331 330 330 329 331 333 325 322 330 322 216 187 145 84 153 215 220 191 256 18 4 346 13 31 35 21 25 44 45 72 100 99 100 136 122 99 188 136 21 345 239 214 41 34 45 335 311 351 346 294 239 231 175 196 169 126 334 262 213 238 211 158 156 155 149 159 174 175 177 177 179 178 182 189
315 319 321 324 327 329 330 329 330 330 327 328 327 327 328 327 327 324 326 326 312 320 326 305 223 188 142 51 223 209 197 195 207 49 13 360 5 12 25 19 38 62 60 84 112 105 97 127 113 106 146 114 188 282 83 31 15 326 49 42 321 356 341 300 325 160 156 191 173 137 278 255 224 233 194 149 155 148 159 177 181 185 185 184 185 182 193 194
308 312 314 318 322 324 326 326 326 325 324 325 324 324 325 325 323 320 322 317 291 319 327 249 185 165 144 258 234 194 199 201 203 349 15 5 1 298 1 11 45 77 70 82 96 97 95 120 102 86 104 102 249 299 19 7 12 349 11 49 7 354 290 292 327 134 152 200 151 120 256 260 252 246 186 160 162 159 175 190 185 191 191 189 190 188 198 198
299 305 308 311 315 319 321 322 323 322 322 322 322 323 323 322 320 318 318 303 271 313 326 208 178 146 105 288 241 202 215 217 224 261 331 352 6 318 334 356 105 95 77 76 85 97 97 105 92 79 275 19 47 41 8 347 5 30 348 317 345 341 279 301 292 171 174 258 114 131 241 268 272 263 185 164 170 173 183 191 190 195 192 190 194 192 197 202
294 300 301 304 309 314 317 318 319 319 319 320 321 320 320 321 317 315 314 285 262 299 316 195 182 147 103 281 250 216 224 226 233 253 276 308 349 346 343 27 124 95 92 85 83 103 77 71 72 66 204 36 61 72 33 7 347 4 48 259 283 288 303 317 313 221 217 126 150 185 241 274 277 294 163 166 177 185 192 196 196 199 197 192 195 195 194 198
291 295 297 300 302 307 312 315 316 318 317 319 321 320 321 321 314 312 315 270 261 288 257 170 167 148 234 243 216 262 227 218 224 241 269 282 318 340 347 109 102 85 96 83 85 103 40 53 52 323 49 48 71 82 32 353 310 322 18 259 255 246 269 301 308 319 9 166 223 226 241 260 266 307 132 179 182 189 201 204 203 202 199 198 196 197 198 195
291 293 296 299 300 305 309 313 315 317 317 319 323 321 319 317 309 304 284 234 277 346 140 149 114 120 279 238 196 234 188 189 215 241 261 262 292 336 2 112 100 91 55 37 36 35 5 27 60 27 20 8 32 81 90 255 216 238 274 284 288 264 226 246 269 305 18 227 235 223 244 261 270 277 197 191 190 198 210 209 206 204 199 202 200 198 203 198
290 291 295 299 302 304 308 313 316 319 320 322 326 324 318 315 310 285 215 188 29 136 200 229 155 148 241 245 194 160 155 181 222 241 232 230 280 340 86 76 77 93 50 5 318 21 49 35 38 22 323 294 251 138 181 210 184 197 226 221 259 275 259 246 242 264 312 281 258 235 243 264 274 275 239 194 197 206 219 219 208 206 203 204 205 203 204 200
288 288 293 299 302 304 309 313 315 320 325 328 333 336 335 342 346 328 308 289 226 186 216 237 214 206 248 264 148 145 188 236 236 220 196 205 274 105 107 35 33 47 72 194 272 10 80 61 302 236 229 230 223 189 168 173 168 183 208 221 242 244 272 275 253 278 279 234 264 242 238 260 268 273 260 197 198 215 222 227 216 206 207 206 206 207 203 202
289 288 291 298 302 302 305 311 313 318 325 332 336 342 4 132 6 323 315 298 269 209 244 250 237 265 258 200 172 158 137 276 267 213 186 202 108 143 242 20 56 271 291 230 277 5 62 60 251 226 214 209 203 177 139 132 163 197 214 241 268 224 255 279 284 308 300 182 265 250 236 258 260 272 270 183 184 220 217 219 220 208 209 210 207 207 203 202
292 288 290 297 301 301 302 310 312 312 321 330 333 342 150 156 168 226 345 300 290 280 208 263 275 272 265 212 204 162 112 51 291 248 184 147 97 181 257 57 137 215 316 46 37 3 21 264 246 229 190 147 114 131 135 152 178 186 191 216 274 239 263 292 305 334 348 159 269 276 263 264 260 268 269 222 195 224 219 214 218 208 207 210 206 204 198 198
298 293 292 294 300 299 301 308 307 309 317 328 335 332 163 162 166 177 103 279 290 305 138 212 202 228 267 259 203 159 151 193 234 241 180 136 117 196 158 110 144 189 12 156 164 109 314 254 241 197 140 134 104 67 119 120 221 187 180 194 262 263 277 283 298 334 325 246 270 288 280 265 260 262 267 250 211 228 230 221 223 213 211 212 206 202 196 196
298 295 291 292 298 297 302 308 302 300 301 308 325 282 203 193 174 172 49 293 288 293 238 207 188 190 202 202 176 156 159 196 188 213 174 148 155 159 158 149 126 139 234 186 155 175 241 249 163 110 111 143 167 333 146 192 281 242 203 205 241 259 232 234 285 331 325 310 312 319 300 261 238 246 261 282 239 245 240 225 231 224 219 213 203 208 204 199
295 291 290 293 297 295 306 312 300 288 290 286 279 262 192 193 190 148 36 21 298 298 279 221 217 201 185 140 157 166 145 228 215 210 160 149 159 143 154 151 129 201 217 160 145 221 261 258 124 118 96 123 161 233 209 186 250 295 230 211 225 244 246 263 326 348 350 331 353 10 327 272 222 238 259 290 295 260 235 217 232 225 212 204 203 208 204 203
299 293 291 291 295 303 308 312 309 309 301 282 243 235 204 199 205 155 60 44 295 276 231 200 196 178 176 144 163 160 115 279 265 127 96 112 157 137 137 163 66 219 189 144 169 238 269 342 87 128 136 128 165 242 239 172 144 304 249 200 203 210 240 303 3 10 335 274 295 64 319 274 269 222 254 263 265 264 246 226 235 226 209 208 211 207 195 199
298 294 295 290 297 319 314 298 307 307 295 284 237 215 222 201 202 255 40 23 285 235 149 255 309 156 177 194 170 144 175 258 68 69 71 80 50 83 141 213 137 222 185 125 302 256 168 84 60 103 121 135 181 243 231 159 134 247 230 135 123 117 144 162 84 25 239 274 287 171 168 273 277 235 247 259 264 271 266 248 241 225 215 217 214 204 195 198
285 282 291 290 295 313 297 288 296 294 272 272 228 200 203 188 192 52 66 310 275 186 128 267 103 133 163 350 77 118 226 252 121 234 11 68 43 66 146 225 181 194 179 133 240 263 158 164 187 155 129 176 209 224 192 158 159 243 203 120 98 100 130 142 102 270 283 3 293 221 148 259 277 246 266 314 259 266 265 255 247 227 218 219 211 201 198 197
284 275 282 285 287 289 282 276 272 277 285 268 204 172 175 179 159 61 90 235 269 40 66 79 125 123 41 59 19 53 346 355 125 249 349 65 42 65 162 214 155 163 167 132 224 257 206 205 193 154 159 211 219 230 181 165 192 225 136 98 57 64 70 70 76 43 37 348 269 240 153 217 273 226 176 37 237 252 259 256 251 232 221 215 203 200 198 191
284 271 278 280 278 278 275 264 258 261 273 260 194 157 153 133 73 90 205 237 263 293 79 112 177 169 100 120 292 334 175 288 347 4 19 54 10 34 124 177 95 114 341 354 273 265 322 317 173 150 188 196 155 96 151 154 166 119 87 50 18 28 44 45 53 68 49 273 262 236 174 188 276 242 174 188 214 224 242 259 259 238 218 203 197 199 195 187
275 262 267 271 268 263 260 276 264 253 251 217 161 135 117 47 76 154 221 242 263 261 146 172 234 112 125 151 204 209 166 255 245 137 119 145 12 33 88 159 69 69 357 336 299 305 339 341 226 252 189 135 100 80 43 31 75 93 72 47 8 340 12 16 359 46 52 256 264 240 174 186 243 243 203 233 246 223 224 251 255 234 212 199 198 199 192 185
269 257 257 262 259 248 244 263 306 244 210 167 142 105 88 88 210 188 228 280 273 218 173 187 216 161 160 161 203 195 175 211 197 167 162 155 179 188 187 191 171 6 315 267 280 330 309 230 255 314 206 140 111 88 14 354 37 89 90 74 43 337 353 342 312 48 225 249 255 124 143 214 243 244 240 249 258 251 231 232 245 235 208 199 199 197 189 179
264 256 255 252 249 246 246 249 264 236 174 155 131 62 87 193 232 194 200 242 230 214 144 125 119 144 146 143 235 208 165 211 192 167 165 142 186 235 245 216 175 199 256 216 303 330 295 293 314 194 264 173 150 153 203 262 138 146 148 126 126 111 336 276 271 270 266 269 250 133 132 261 271 258 234 232 241 249 241 234 242 232 201 200 199 190 182 178
260 253 252 243 241 250 247 242 255 240 176 156 108 70 130 222 237 193 207 226 234 345 38 96 90 102 141 178 236 199 174 227 177 146 169 129 168 239 238 230 187 144 132 137 199 200 243 294 230 179 229 181 178 186 165 143 144 175 160 136 150 154 180 231 238 246 282 302 273 160 149 246 268 257 219 230 249 257 264 261 250 235 206 196 190 179 177 181
254 251 249 234 232 246 243 242 255 235 179 150 104 145 202 219 211 190 217 219 228 338 25 43 90 109 227 266 276 226 203 237 150 129 178 173 186 210 196 205 196 147 121 160 238 168 202 264 254 223 240 169 182 204 129 117 115 204 133 113 173 184 172 202 235 214 283 319 284 207 210 230 247 261 216 219 273 269 296 303 247 221 204 175 181 183 179 183
248 248 241 221 224 241 239 238 244 223 181 139 137 209 218 212 179 186 200 175 179 160 121 27 86 139 249 279 270 250 223 232 146 144 210 210 210 212 203 216 193 174 167 168 204 182 197 270 278 351 304 170 177 224 142 144 176 165 136 178 215 182 138 148 275 326 70 294 272 264 268 276 312 289 221 162 250 257 284 300 229 208 194 179 194 191 183 187
235 243 234 215 227 238 234 233 227 208 176 138 199 219 214 205 189 183 180 152 152 134 131 193 200 178 217 237 226 215 181 218 177 169 215 231 229 198 200 246 198 186 191 174 205 212 191 268 262 140 203 239 211 227 1 14 130 130 178 216 197 125 98 108 262 338 39 253 270 293 280 281 296 290 275 103 235 251 253 248 226 215 201 202 207 193 187 188
227 244 252 238 238 234 224 219 201 182 142 155 225 237 210 200 202 180 170 151 127 117 141 203 214 185 192 207 225 194 172 194 177 171 203 223 245 188 163 217 204 193 204 170 195 238 144 257 279 107 218 298 10 66 326 347 76 125 190 215 128 138 156 101 154 242 202 241 271 291 292 280 257 247 275 239 205 235 241 214 202 214 211 212 208 191 187 184
218 239 257 232 229 225 209 198 180 161 146 201 225 240 209 203 227 205 180 161 135 142 177 215 214 193 183 181 194 184 183 192 170 177 202 194 235 209 168 201 190 186 218 154 173 224 116 208 276 347 292 306 20 132 192 229 44 81 308 338 38 163 171 162 171 193 174 221 271 301 311 286 252 200 239 229 198 215 222 197 203 215 214 212 200 188 187 186
209 247 273 185 199 202 188 176 165 167 203 216 222 228 189 204 239 231 210 192 183 183 199 212 201 206 207 184 189 186 188 199 179 186 215 194 220 235 210 198 155 141 11 85 147 181 101 195 245 323 337 266 193 203 194 187 172 168 210 229 224 162 129 221 218 164 165 217 255 288 287 277 259 157 210 218 198 210 208 195 209 218 216 210 198 190 190 191
192 253 258 174 182 179 165 160 180 193 211 230 232 227 203 200 218 234 233 215 219 229 158 175 196 205 194 183 205 186 177 202 190 192 227 212 214 236 213 185 150 145 115 75 152 194 158 184 198 185 251 216 219 237 205 193 183 181 195 199 197 179 144 226 254 216 175 222 220 169 267 270 262 145 197 194 187 210 203 193 207 218 216 206 198 197 193 192
187 222 241 178 177 167 154 175 215 195 217 230 228 225 211 209 206 221 228 212 221 247 173 195 210 205 193 187 195 182 177 201 197 198 230 219 212 222 204 173 151 148 146 137 193 194 138 133 187 218 224 220 241 282 259 218 218 211 214 193 182 177 164 191 235 226 170 235 223 125 266 267 256 134 190 193 198 218 197 192 206 216 214 202 196 200 195 192
201 199 75 172 174 165 158 223 215 203 230 228 231 247 223 222 226 209 204 204 210 215 220 231 205 202 219 201 178 190 193 203 201 194 218 232 222 219 183 158 149 145 145 148 175 159 108 126 215 261 293 337 330 335 357 21 38 247 239 186 177 203 197 198 215 182 153 229 203 138 256 262 275 85 226 246 266 244 198 197 211 212 209 202 194 195 194 190
191 177 50 173 179 177 189 216 206 216 225 219 231 236 229 234 228 213 202 201 201 193 211 226 205 206 225 197 190 206 193 203 221 204 208 226 233 219 177 164 162 166 181 193 173 172 191 172 178 251 295 316 331 344 329 325 256 232 236 190 202 218 203 168 110 132 241 234 195 197 253 258 270 51 336 316 302 264 229 213 220 214 201 201 196 193 193 186
165 173 103 179 186 194 219 211 193 216 220 219 227 229 232 247 230 217 212 210 208 191 204 230 208 197 208 178 201 216 198 212 232 219 213 221 246 268 189 181 186 187 197 202 160 161 184 179 172 205 234 247 250 234 215 222 211 225 232 203 211 214 198 187 188 217 242 232 189 213 251 261 266 263 9 286 263 254 252 237 233 230 211 200 196 193 191 185
168 194 177 174 188 208 240 231 189 213 217 213 225 229 228 237 239 218 211 219 222 205 213 252 197 180 194 182 202 221 218 223 230 229 220 207 219 263 193 194 210 206 187 143 151 150 150 187 202 211 218 228 244 242 191 137 162 203 213 208 211 212 203 198 211 227 231 203 201 232 246 263 271 264 256 263 254 237 242 239 229 226 213 200 199 196 191 186
191 210 185 167 176 205 228 231 214 222 213 189 199 215 219 228 239 227 205 210 209 197 226 248 203 192 206 195 200 221 222 223 229 233 226 196 204 287 11 176 229 234 214 158 169 149 116 222 223 221 226 233 245 249 209 150 204 225 221 215 210 207 198 191 215 226 214 136 243 248 249 258 267 267 263 262 259 244 231 229 223 220 210 200 198 190 184 183
202 218 182 174 181 195 208 214 207 206 214 205 205 224 228 227 226 221 208 195 183 188 210 230 217 217 217 200 197 222 225 226 233 232 228 212 197 216 358 245 218 205 174 161 222 164 143 235 233 223 234 241 248 252 236 213 239 246 248 242 214 193 195 199 217 226 212 216 247 256 260 260 264 269 267 262 262 257 241 228 219 215 204 192 187 180 182 186
200 242 198 183 195 201 204 208 200 196 212 215 218 237 239 234 227 217 185 150 200 204 204 220 226 223 219 205 197 217 223 223 229 226 219 217 208 187 222 253 235 174 169 174 233 186 163 238 240 225 239 248 247 250 247 247 257 261 262 256 225 190 206 210 221 230 225 232 247 257 265 266 265 267 268 268 268 261 248 225 206 204 195 186 187 186 189 193
203 220 188 184 215 212 206 205 193 198 213 211 220 234 236 239 237 223 172 180 210 209 200 221 233 226 210 207 211 226 229 224 228 227 203 199 210 201 213 223 170 126 197 189 198 229 206 234 239 211 241 254 249 246 239 241 250 258 263 261 241 214 225 226 227 234 232 239 248 253 260 266 266 265 268 273 271 255 240 222 208 203 192 187 191 192 194 196
217 198 163 174 230 204 195 197 186 200 214 201 218 232 232 238 237 227 212 211 216 213 198 216 232 232 200 204 217 229 234 230 232 235 208 195 207 209 213 206 162 156 197 189 165 196 203 226 248 147 230 256 253 235 222 232 261 263 261 260 248 228 231 235 232 230 227 234 246 252 253 256 262 266 271 272 257 237 234 227 213 205 196 192 194 196 198 196
216 198 172 198 233 197 189 200 187 200 214 203 215 226 226 234 235 225 233 231 221 223 216 213 227 230 205 213 221 228 235 236 237 240 216 201 223 232 224 194 175 171 174 174 178 183 183 204 214 167 224 258 260 112 116 82 35 263 255 252 244 230 228 239 243 237 229 227 237 245 243 246 256 266 272 268 248 227 229 224 208 205 202 197 199 199 198 194